This is the latest recevied weather packets stored in our database for station/object K7LDN-13. If no packets are shown the sender has not sent any weather packets the latest 10 day(s).
| Time | Temp. | Humidity | Pressure | Rain* | Wind** | Luminosity | Snow |
|---|---|---|---|---|---|---|---|
| 1777859515 | 21.67° C | 21% | 1012.7 hPa | 0 mm | - | 19 W/m² | - |
| 1777859210 | 21.67° C | 21% | 1012.7 hPa | 0 mm | - | 23 W/m² | - |
| 1777858908 | 21.67° C | 20% | 1012.7 hPa | 0 mm | - | 27 W/m² | - |
| 1777858606 | 21.67° C | 20% | 1012.8 hPa | 0 mm | - | 32 W/m² | - |
| 1777858302 | 21.67° C | 19% | 1012.8 hPa | 0 mm | - | 38 W/m² | - |
| 1777857999 | 22.22° C | 19% | 1012.7 hPa | 0 mm | - | 44 W/m² | - |
| 1777857698 | 22.22° C | 18% | 1012.8 hPa | 0 mm | - | 50 W/m² | - |
| 1777857394 | 22.22° C | 18% | 1013 hPa | 0 mm | - | 56 W/m² | - |
| 1777857091 | 22.22° C | 18% | 1012.7 hPa | 0 mm | - | 64 W/m² | - |
| 1777856786 | 22.78° C | 17% | 1013.1 hPa | 0 mm | - | 72 W/m² | - |
| 1777856482 | 22.78° C | 18% | 1013.1 hPa | 0 mm | - | 82 W/m² | - |
| 1777856180 | 22.78° C | 17% | 1013.1 hPa | 0 mm | - | 86 W/m² | - |
| 1777855876 | 22.78° C | 16% | 1013.1 hPa | 0 mm | - | 87 W/m² | - |
| 1777855575 | 22.78° C | 16% | 1013.1 hPa | 0 mm | - | 96 W/m² | - |
| 1777855271 | 22.78° C | 16% | 1013.1 hPa | 0 mm | - | 106 W/m² | - |
| 1777854968 | 23.33° C | 17% | 1013.3 hPa | 0 mm | - | 114 W/m² | - |
| 1777854664 | 23.33° C | 16% | 1013.2 hPa | 0 mm | - | 131 W/m² | - |
| 1777854361 | 23.33° C | 17% | 1013.1 hPa | 0 mm | - | 134 W/m² | - |
| 1777854059 | 23.33° C | 17% | 1013.3 hPa | 0 mm | - | 143 W/m² | - |
| 1777853756 | 23.33° C | 16% | 1013.4 hPa | 0 mm | - | 153 W/m² | - |
| 1777853452 | 23.33° C | 17% | 1013.3 hPa | 0 mm | - | 165 W/m² | - |
| 1777853149 | 23.33° C | 16% | 1013.3 hPa | 0 mm | - | 175 W/m² | - |
| 1777852847 | 23.33° C | 16% | 1013.2 hPa | 0 mm | - | 191 W/m² | - |
| 1777852545 | 23.89° C | 17% | 1013.3 hPa | 0 mm | - | 199 W/m² | - |
| 1777852242 | 23.89° C | 15% | 1013.5 hPa | 0 mm | - | 197 W/m² | - |
* Rain latest hour (hover to see other rain measurements)
** Current wind speed in m/s (hover to see current wind gust speed)